Time,TemperatureF,DewpointF,PressureIn,WindDirection,WindDirectionDegrees,WindSpeedMPH,WindSpeedGustMPH,Humidity,HourlyPrecipIn,Conditions,Clouds,dailyrainin,SoftwareType,DateUTC
2013-10-07 00:10:00,58.1,46.0,30.11,NNE,22,0.0,-999.0,64,-99.99,,,0.00,Acu-Link.com,2013-10-07 07:10:00,
2013-10-07 00:25:00,59.4,45.9,30.11,WSW,247,0.0,-999.0,61,-99.99,,,0.00,Acu-Link.com,2013-10-07 07:25:00,
2013-10-07 00:41:00,59.4,45.9,30.11,WSW,247,1.1,-999.0,61,-99.99,,,0.00,Acu-Link.com,2013-10-07 07:41:00,
2013-10-07 00:57:00,58.8,44.1,30.11,West,270,1.1,-999.0,58,-99.99,,,0.00,Acu-Link.com,2013-10-07 07:57:00,
2013-10-07 01:13:00,58.8,44.5,30.11,West,270,0.0,-999.0,59,-99.99,,,0.00,Acu-Link.com,2013-10-07 08:13:00,
2013-10-07 01:28:00,58.8,44.5,30.11,West,270,0.0,-999.0,59,-99.99,,,0.00,Acu-Link.com,2013-10-07 08:28:00,
2013-10-07 01:43:00,58.1,43.8,30.11,West,270,0.0,-999.0,59,-99.99,,,0.00,Acu-Link.com,2013-10-07 08:43:00,
2013-10-07 01:59:00,57.6,43.8,30.11,West,270,0.0,-999.0,60,-99.99,,,0.00,Acu-Link.com,2013-10-07 08:59:00,
2013-10-07 02:14:00,57.7,43.9,30.11,West,270,0.0,-999.0,60,-99.99,,,0.00,Acu-Link.com,2013-10-07 09:14:00,
2013-10-07 02:29:00,57.9,43.7,30.11,West,270,0.0,-999.0,59,-99.99,,,0.00,Acu-Link.com,2013-10-07 09:29:00,
2013-10-07 02:44:00,54.3,43.2,30.10,West,270,0.0,-999.0,66,-99.99,,,0.00,Acu-Link.com,2013-10-07 09:44:00,
2013-10-07 02:59:00,54.1,43.4,30.10,West,270,0.0,-999.0,67,-99.99,,,0.00,Acu-Link.com,2013-10-07 09:59:00,
2013-10-07 03:15:00,54.1,44.2,30.10,West,270,0.0,-999.0,69,-99.99,,,0.00,Acu-Link.com,2013-10-07 10:15:00,
2013-10-07 03:30:00,55.2,43.6,30.10,West,270,0.0,-999.0,65,-99.99,,,0.00,Acu-Link.com,2013-10-07 10:30:00,
2013-10-07 03:45:00,54.3,43.2,30.09,West,270,0.0,-999.0,66,-99.99,,,0.00,Acu-Link.com,2013-10-07 10:45:00,
2013-10-07 04:00:00,53.6,43.3,30.09,West,270,0.0,-999.0,68,-99.99,,,0.00,Acu-Link.com,2013-10-07 11:00:00,
2013-10-07 04:16:00,54.0,44.1,30.09,WSW,247,0.0,-999.0,69,-99.99,,,0.00,Acu-Link.com,2013-10-07 11:16:00,
2013-10-07 04:31:00,54.0,44.1,30.08,West,270,0.0,-999.0,69,-99.99,,,0.00,Acu-Link.com,2013-10-07 11:31:00,
2013-10-07 04:46:00,54.1,43.8,30.08,West,270,0.0,-999.0,68,-99.99,,,0.00,Acu-Link.com,2013-10-07 11:46:00,
2013-10-07 05:02:00,55.0,44.6,30.10,WSW,247,0.0,-999.0,68,-99.99,,,0.00,Acu-Link.com,2013-10-07 12:02:00,
2013-10-07 05:17:00,55.0,45.0,30.09,WSW,247,0.0,-999.0,69,-99.99,,,0.00,Acu-Link.com,2013-10-07 12:17:00,
2013-10-07 05:32:00,55.0,45.0,30.10,WSW,247,0.0,-999.0,69,-99.99,,,0.00,Acu-Link.com,2013-10-07 12:32:00,
2013-10-07 05:48:00,54.5,44.5,30.09,WSW,247,0.0,-999.0,69,-99.99,,,0.00,Acu-Link.com,2013-10-07 12:48:00,
2013-10-07 06:03:00,53.8,44.6,30.10,WSW,247,0.0,-999.0,71,-99.99,,,0.00,Acu-Link.com,2013-10-07 13:03:00,
2013-10-07 06:18:00,54.3,45.1,30.10,WSW,247,0.0,-999.0,71,-99.99,,,0.00,Acu-Link.com,2013-10-07 13:18:00,
2013-10-07 06:34:00,53.4,44.2,30.10,WSW,247,0.0,-999.0,71,-99.99,,,0.00,Acu-Link.com,2013-10-07 13:34:00,
2013-10-07 06:49:00,52.7,43.9,30.10,WSW,247,0.0,-999.0,72,-99.99,,,0.00,Acu-Link.com,2013-10-07 13:49:00,
2013-10-07 07:04:00,51.4,43.0,30.09,WSW,247,0.0,-999.0,73,-99.99,,,0.00,Acu-Link.com,2013-10-07 14:04:00,
2013-10-07 07:19:00,50.9,43.6,30.10,WSW,247,0.0,-999.0,76,-99.99,,,0.00,Acu-Link.com,2013-10-07 14:19:00,
2013-10-07 07:35:00,51.6,44.3,30.10,WSW,247,0.0,-999.0,76,-99.99,,,0.00,Acu-Link.com,2013-10-07 14:35:00,
2013-10-07 07:50:00,52.5,45.2,30.11,WSW,247,0.0,-999.0,76,-99.99,,,0.00,Acu-Link.com,2013-10-07 14:50:00,
2013-10-07 08:05:00,52.7,45.3,30.11,WSW,247,0.0,-999.0,76,-99.99,,,0.00,Acu-Link.com,2013-10-07 15:05:00,
2013-10-07 08:20:00,54.1,45.3,30.11,WSW,247,0.0,-999.0,72,-99.99,,,0.00,Acu-Link.com,2013-10-07 15:20:00,
2013-10-07 08:35:00,54.9,45.3,30.11,WSW,247,0.0,-999.0,70,-99.99,,,0.00,Acu-Link.com,2013-10-07 15:35:00,
2013-10-07 08:51:00,55.2,45.6,30.10,WSW,247,0.0,-999.0,70,-99.99,,,0.00,Acu-Link.com,2013-10-07 15:51:00,
2013-10-07 09:06:00,55.9,46.3,30.11,WSW,247,0.0,-999.0,70,-99.99,,,0.00,Acu-Link.com,2013-10-07 16:06:00,
2013-10-07 09:21:00,57.0,46.9,30.11,WSW,247,0.0,-999.0,69,-99.99,,,0.00,Acu-Link.com,2013-10-07 16:21:00,
2013-10-07 09:36:00,58.1,46.8,30.10,WSW,247,1.7,-999.0,66,-99.99,,,0.00,Acu-Link.com,2013-10-07 16:36:00,
2013-10-07 09:51:00,59.9,46.0,30.10,WSW,247,0.0,-999.0,60,-99.99,,,0.00,Acu-Link.com,2013-10-07 16:51:00,
2013-10-07 10:07:00,61.9,46.0,30.09,SW,225,2.2,-999.0,56,-99.99,,,0.00,Acu-Link.com,2013-10-07 17:07:00,
2013-10-07 10:22:00,63.7,45.2,30.10,SW,225,1.7,-999.0,51,-99.99,,,0.00,Acu-Link.com,2013-10-07 17:22:00,
2013-10-07 10:37:00,64.2,45.7,30.09,SW,225,1.1,-999.0,51,-99.99,,,0.00,Acu-Link.com,2013-10-07 17:37:00,
2013-10-07 10:52:00,66.6,47.4,30.09,SW,225,1.7,-999.0,50,-99.99,,,0.00,Acu-Link.com,2013-10-07 17:52:00,
2013-10-07 11:07:00,67.3,45.8,30.09,SW,225,2.7,-999.0,46,-99.99,,,0.00,Acu-Link.com,2013-10-07 18:07:00,
2013-10-07 11:23:00,68.9,46.1,30.08,SW,225,2.2,-999.0,44,-99.99,,,0.00,Acu-Link.com,2013-10-07 18:23:00,
2013-10-07 11:38:00,72.0,44.3,30.08,WNW,292,2.7,-999.0,37,-99.99,,,0.00,Acu-Link.com,2013-10-07 18:38:00,
2013-10-07 11:53:00,73.2,46.7,30.07,NNW,337,5.3,-999.0,39,-99.99,,,0.00,Acu-Link.com,2013-10-07 18:53:00,
2013-10-07 12:09:00,74.8,48.2,30.06,West,270,1.7,-999.0,39,-99.99,,,0.00,Acu-Link.com,2013-10-07 19:09:00,
2013-10-07 12:24:00,76.6,48.4,30.05,NNW,337,2.7,-999.0,37,-99.99,,,0.00,Acu-Link.com,2013-10-07 19:24:00,
2013-10-07 12:39:00,78.8,48.8,30.04,NNE,22,4.2,-999.0,35,-99.99,,,0.00,Acu-Link.com,2013-10-07 19:39:00,
2013-10-07 12:54:00,80.1,48.4,30.03,SSW,202,2.7,-999.0,33,-99.99,,,0.00,Acu-Link.com,2013-10-07 19:54:00,
2013-10-07 13:10:00,80.1,47.6,30.02,NE,45,2.2,-999.0,32,-99.99,,,0.00,Acu-Link.com,2013-10-07 20:10:00,
2013-10-07 13:25:00,82.9,48.3,30.01,NW,315,4.7,-999.0,30,-99.99,,,0.00,Acu-Link.com,2013-10-07 20:25:00,
2013-10-07 13:40:00,83.5,47.9,30.00,West,270,4.2,-999.0,29,-99.99,,,0.00,Acu-Link.com,2013-10-07 20:40:00,
2013-10-07 13:55:00,84.4,47.7,29.98,ENE,67,1.7,-999.0,28,-99.99,,,0.00,Acu-Link.com,2013-10-07 20:55:00,
2013-10-07 14:10:00,84.9,46.2,29.97,ENE,67,2.2,-999.0,26,-99.99,,,0.00,Acu-Link.com,2013-10-07 21:10:00,
2013-10-07 14:26:00,84.4,44.7,29.97,NE,45,3.7,-999.0,25,-99.99,,,0.00,Acu-Link.com,2013-10-07 21:26:00,
2013-10-07 14:41:00,85.5,46.7,29.96,WSW,247,2.2,-999.0,26,-99.99,,,0.00,Acu-Link.com,2013-10-07 21:41:00,
2013-10-07 14:56:00,85.3,45.5,29.96,NW,315,4.2,-999.0,25,-99.99,,,0.00,Acu-Link.com,2013-10-07 21:56:00,
2013-10-07 15:11:00,86.0,45.0,29.95,WSW,247,4.7,-999.0,24,-99.99,,,0.00,Acu-Link.com,2013-10-07 22:11:00,
2013-10-07 15:27:00,86.2,44.0,29.93,SSW,202,3.7,-999.0,23,-99.99,,,0.00,Acu-Link.com,2013-10-07 22:27:00,
2013-10-07 15:42:00,86.5,43.1,29.91,NE,45,1.7,-999.0,22,-99.99,,,0.00,Acu-Link.com,2013-10-07 22:42:00,
2013-10-07 15:57:00,85.8,42.5,29.90,SSW,202,2.7,-999.0,22,-99.99,,,0.00,Acu-Link.com,2013-10-07 22:57:00,
2013-10-07 16:12:00,86.5,44.3,29.89,West,270,4.7,-999.0,23,-99.99,,,0.00,Acu-Link.com,2013-10-07 23:12:00,
2013-10-07 16:28:00,86.2,42.9,29.89,SSW,202,1.1,-999.0,22,-99.99,,,0.00,Acu-Link.com,2013-10-07 23:28:00,
2013-10-07 16:43:00,85.6,42.4,29.89,WSW,247,2.2,-999.0,22,-99.99,,,0.00,Acu-Link.com,2013-10-07 23:43:00,
2013-10-07 16:58:00,86.4,43.0,29.90,SSE,157,1.7,-999.0,22,-99.99,,,0.00,Acu-Link.com,2013-10-07 23:58:00,
2013-10-07 17:13:00,85.3,43.3,29.89,NNW,337,1.7,-999.0,23,-99.99,,,0.00,Acu-Link.com,2013-10-08 00:13:00,
2013-10-07 17:29:00,85.1,42.0,29.91,NW,315,2.7,-999.0,22,-99.99,,,0.00,Acu-Link.com,2013-10-08 00:29:00,
2013-10-07 17:44:00,86.9,42.2,29.92,WNW,292,1.7,-999.0,21,-99.99,,,0.00,Acu-Link.com,2013-10-08 00:44:00,
2013-10-07 17:59:00,84.2,42.4,29.92,West,270,0.0,-999.0,23,-99.99,,,0.00,Acu-Link.com,2013-10-08 00:59:00,
2013-10-07 18:14:00,83.5,45.0,29.91,West,270,0.0,-999.0,26,-99.99,,,0.00,Acu-Link.com,2013-10-08 01:14:00,
2013-10-07 18:29:00,80.4,45.2,29.91,West,270,0.0,-999.0,29,-99.99,,,0.00,Acu-Link.com,2013-10-08 01:29:00,
2013-10-07 18:45:00,77.4,46.0,29.91,West,270,0.0,-999.0,33,-99.99,,,0.00,Acu-Link.com,2013-10-08 01:45:00,
2013-10-07 19:00:00,74.8,46.8,29.92,West,270,0.0,-999.0,37,-99.99,,,0.00,Acu-Link.com,2013-10-08 02:00:00,
2013-10-07 19:15:00,72.9,47.1,29.93,West,270,0.0,-999.0,40,-99.99,,,0.00,Acu-Link.com,2013-10-08 02:15:00,
2013-10-07 19:31:00,71.2,48.2,29.93,West,270,0.0,-999.0,44,-99.99,,,0.00,Acu-Link.com,2013-10-08 02:31:00,
2013-10-07 19:46:00,69.3,49.3,29.93,West,270,0.0,-999.0,49,-99.99,,,0.00,Acu-Link.com,2013-10-08 02:46:00,
2013-10-07 20:01:00,68.2,49.4,29.93,West,270,0.0,-999.0,51,-99.99,,,0.00,Acu-Link.com,2013-10-08 03:01:00,
2013-10-07 20:16:00,66.7,48.5,29.93,West,270,0.0,-999.0,52,-99.99,,,0.00,Acu-Link.com,2013-10-08 03:16:00,
2013-10-07 20:32:00,66.0,48.9,29.94,West,270,0.0,-999.0,54,-99.99,,,0.00,Acu-Link.com,2013-10-08 03:32:00,
2013-10-07 20:47:00,64.0,47.5,29.95,West,270,0.0,-999.0,55,-99.99,,,0.00,Acu-Link.com,2013-10-08 03:47:00,
2013-10-07 21:02:00,64.2,47.7,29.95,West,270,0.0,-999.0,55,-99.99,,,0.00,Acu-Link.com,2013-10-08 04:02:00,
2013-10-07 21:17:00,63.1,46.2,29.96,West,270,0.0,-999.0,54,-99.99,,,0.00,Acu-Link.com,2013-10-08 04:17:00,
2013-10-07 21:33:00,62.8,46.4,29.96,West,270,0.0,-999.0,55,-99.99,,,0.00,Acu-Link.com,2013-10-08 04:33:00,
2013-10-07 21:48:00,60.6,45.7,29.96,West,270,0.0,-999.0,58,-99.99,,,0.00,Acu-Link.com,2013-10-08 04:48:00,
2013-10-07 22:03:00,60.8,45.5,29.96,West,270,0.0,-999.0,57,-99.99,,,0.00,Acu-Link.com,2013-10-08 05:03:00,
2013-10-07 22:18:00,60.6,45.3,29.97,West,270,0.0,-999.0,57,-99.99,,,0.00,Acu-Link.com,2013-10-08 05:18:00,
2013-10-07 22:34:00,60.4,44.6,29.97,West,270,1.1,-999.0,56,-99.99,,,0.00,Acu-Link.com,2013-10-08 05:34:00,
2013-10-07 22:49:00,59.9,44.6,29.97,West,270,0.0,-999.0,57,-99.99,,,0.00,Acu-Link.com,2013-10-08 05:49:00,
2013-10-07 23:04:00,59.9,45.1,29.97,West,270,0.0,-999.0,58,-99.99,,,0.00,Acu-Link.com,2013-10-08 06:04:00,
2013-10-07 23:19:00,59.7,44.4,29.97,West,270,0.0,-999.0,57,-99.99,,,0.00,Acu-Link.com,2013-10-08 06:19:00,
2013-10-07 23:34:00,59.0,43.3,29.98,West,270,0.0,-999.0,56,-99.99,,,0.00,Acu-Link.com,2013-10-08 06:34:00,
2013-10-07 23:50:00,60.6,43.9,29.98,West,270,0.0,-999.0,54,-99.99,,,0.00,Acu-Link.com,2013-10-08 06:50:00,